TimeCST,TemperatureF,Dew PointF,Humidity,Sea Level PressureIn,VisibilityMPH,Wind Direction,Wind SpeedMPH,Gust SpeedMPH,PrecipitationIn,Events,Conditions,WindDirDegrees,DateUTC
12:53 AM,39.9,30.9,70,30.11,10.0,South,4.6,-,N/A,,Clear,190,2013-03-04 06:53:00
1:53 AM,37.9,30.9,76,30.11,10.0,South,3.5,-,N/A,,Clear,190,2013-03-04 07:53:00
2:53 AM,35.1,30.9,85,30.10,10.0,Calm,Calm,-,N/A,,Clear,0,2013-03-04 08:53:00
3:53 AM,37.0,33.1,86,30.07,10.0,South,4.6,-,N/A,,Clear,180,2013-03-04 09:53:00
4:53 AM,37.9,34.0,86,30.08,10.0,Calm,Calm,-,N/A,,Clear,0,2013-03-04 10:53:00
5:53 AM,36.0,33.1,89,30.08,10.0,SSE,3.5,-,N/A,,Clear,150,2013-03-04 11:53:00
6:53 AM,37.0,34.0,89,30.09,10.0,SSE,4.6,-,N/A,,Clear,160,2013-03-04 12:53:00
7:53 AM,46.0,39.9,79,30.09,10.0,SSE,9.2,-,N/A,,Clear,160,2013-03-04 13:53:00
8:53 AM,54.0,44.1,69,30.08,10.0,South,13.8,20.7,N/A,,Clear,170,2013-03-04 14:53:00
9:53 AM,60.1,46.0,60,30.07,10.0,South,15.0,24.2,N/A,,Clear,170,2013-03-04 15:53:00
10:53 AM,64.0,45.0,50,30.05,10.0,South,21.9,27.6,N/A,,Clear,170,2013-03-04 16:53:00
11:53 AM,66.0,45.0,47,30.02,10.0,South,18.4,27.6,N/A,,Clear,190,2013-03-04 17:53:00
12:53 PM,66.9,48.0,51,29.98,10.0,South,19.6,28.8,N/A,,Scattered Clouds,170,2013-03-04 18:53:00
1:53 PM,69.1,48.9,49,29.94,10.0,SSE,20.7,28.8,N/A,,Mostly Cloudy,160,2013-03-04 19:53:00
2:53 PM,70.0,46.9,44,29.93,10.0,SSW,17.3,26.5,N/A,,Mostly Cloudy,200,2013-03-04 20:53:00
3:53 PM,68.0,48.0,49,29.93,10.0,South,17.3,24.2,N/A,,Mostly Cloudy,180,2013-03-04 21:53:00
4:53 PM,68.0,48.9,50,29.91,10.0,South,13.8,26.5,N/A,,Mostly Cloudy,180,2013-03-04 22:53:00
5:53 PM,64.9,50.0,58,29.91,10.0,South,12.7,-,N/A,,Mostly Cloudy,190,2013-03-04 23:53:00
6:53 PM,64.0,48.9,58,29.92,10.0,South,12.7,-,N/A,,Overcast,180,2013-03-05 00:53:00
7:53 PM,62.1,52.0,70,29.91,10.0,South,12.7,-,N/A,,Overcast,170,2013-03-05 01:53:00
8:53 PM,61.0,53.1,75,29.92,10.0,South,13.8,-,N/A,,Mostly Cloudy,180,2013-03-05 02:53:00
9:53 PM,60.1,54.0,80,29.92,10.0,South,10.4,-,N/A,,Scattered Clouds,170,2013-03-05 03:53:00
10:53 PM,59.0,54.0,83,29.93,10.0,South,10.4,-,N/A,,Clear,180,2013-03-05 04:53:00
11:53 PM,60.1,55.0,83,29.93,10.0,South,8.1,-,N/A,,Overcast,180,2013-03-05 05:53:00